Etusivu
METAR-TAF:

METAR-TAF

Lentoasemat :

Stennis International Airport

Bay St. Louis, Mississippi, Yhdysvallat

Leveyspiiri: 30-22-04N, Pituuspiiri: 089-27-17W, korkeus merenpinnasta: 7 m

Tämänhetkinen sää

Tämä raportti tehtiin 9 tuntia ja 23 minuuttia sitten, kello 02.53 UTC
Tuuli 4 kn kaakosta
Lämpötila 14°C
Kosteus 82%
Ilmanpaine 1020 hPa
Näkyvyys: 16.1 km
Hajanaisia pilviä 8000 ft:n korkeudessa

METAR: KHSA 240253Z 13004KT 10SM SCT080 14/11 A3012

Aika: 06:16 (12:16 UTC)


TAF: puuttuu

Säähavainnot ja -ennusteet yli 4000 lentoasemalta (METAR- ja TAF-raportit).

Käytössä olevat sääasemat on merkitty karttaan keltaisilla ja punaisilla pisteillä.

Aseta hiiri pisteen päälle nähdäksesi sääaseman nimen.

Klikkaa sitten nähdäksesi säähavainnot ja -ennusteet.

Kartan vaihtaminen: klikkaa mustalla rastilla varustettuja vihreitä pisteitä, niin voit zoomata sisään; viivalla varustettua vihreää pistettä, niin voit zoomata ulos tai vihreitä nuolia, niin pääset viereisille kartoille.


METAR-TAF: